Time,TemperatureF,DewpointF,PressureIn,WindDirection,WindDirectionDegrees,WindSpeedMPH,WindSpeedGustMPH,Humidity,HourlyPrecipIn,Conditions,Clouds,dailyrainin,SoftwareType,DateUTC
2013-01-27 00:01:00,37.0,24.0,-100.00,South,170,11.0,15.0,59,0.00,,,-99.99,,2013-01-27 06:01:00,
2013-01-27 00:11:00,37.0,24.0,-100.00,South,170,11.0,16.0,59,0.00,,,-99.99,,2013-01-27 06:11:00,
2013-01-27 00:21:00,38.0,24.0,-100.00,South,180,14.0,18.0,58,0.00,,,-99.99,,2013-01-27 06:21:00,
2013-01-27 00:32:00,38.0,24.0,-100.00,South,180,13.0,18.0,58,0.00,,,-99.99,,2013-01-27 06:32:00,
2013-01-27 00:41:00,38.0,24.0,-100.00,South,180,13.0,18.0,58,0.00,,,-99.99,,2013-01-27 06:41:00,
2013-01-27 00:51:00,38.0,24.0,-100.00,South,180,11.0,14.0,58,0.00,,,-99.99,,2013-01-27 06:51:00,
2013-01-27 01:01:00,38.0,24.0,-100.00,South,180,11.0,14.0,58,0.00,,,-99.99,,2013-01-27 07:01:00,
2013-01-27 01:13:00,38.0,25.0,-100.00,South,175,11.0,16.0,58,0.00,,,-99.99,,2013-01-27 07:13:00,
2013-01-27 01:21:00,38.0,25.0,-100.00,South,185,10.0,13.0,57,0.00,,,-99.99,,2013-01-27 07:21:00,
2013-01-27 01:31:00,39.0,25.0,-100.00,South,175,12.0,17.0,56,0.00,,,-99.99,,2013-01-27 07:31:00,
2013-01-27 01:41:00,39.0,25.0,-100.00,South,175,12.0,17.0,56,0.00,,,-99.99,,2013-01-27 07:41:00,
2013-01-27 01:51:00,39.0,26.0,-100.00,South,180,10.0,15.0,58,0.75,,,-99.99,,2013-01-27 07:51:00,
2013-01-27 02:01:00,39.0,26.0,-100.00,South,180,10.0,15.0,58,0.75,,,-99.99,,2013-01-27 08:01:00,
2013-01-27 02:11:00,38.0,26.0,-100.00,SSW,195,11.0,14.0,62,0.82,,,-99.99,,2013-01-27 08:11:00,
2013-01-27 02:22:00,37.0,27.0,-100.00,SSW,195,11.0,14.0,66,0.92,,,-99.99,,2013-01-27 08:22:00,
2013-01-27 02:31:00,37.0,30.0,-100.00,South,185,13.0,20.0,74,1.15,,,-99.99,,2013-01-27 08:31:00,
2013-01-27 02:41:00,37.0,30.0,-100.00,South,185,13.0,20.0,74,1.15,,,-99.99,,2013-01-27 08:41:00,
2013-01-27 02:52:00,36.0,33.0,-100.00,South,175,14.0,19.0,87,1.26,,,-99.99,,2013-01-27 08:52:00,
2013-01-27 03:02:00,36.0,33.0,-100.00,South,175,14.0,19.0,87,1.26,,,-99.99,,2013-01-27 09:02:00,
2013-01-27 03:11:00,36.0,34.0,-100.00,South,170,12.0,17.0,91,1.20,,,-99.99,,2013-01-27 09:11:00,
2013-01-27 03:21:00,36.0,34.0,-100.00,South,175,12.0,18.0,93,1.26,,,-99.99,,2013-01-27 09:21:00,
2013-01-27 03:32:00,36.0,35.0,-100.00,South,175,13.0,18.0,95,1.25,,,-99.99,,2013-01-27 09:32:00,
2013-01-27 03:41:00,36.0,35.0,-100.00,South,175,13.0,18.0,95,1.25,,,-99.99,,2013-01-27 09:41:00,
2013-01-27 03:51:00,36.0,36.0,-100.00,South,180,12.0,16.0,97,1.35,,,-99.99,,2013-01-27 09:51:00,
2013-01-27 04:01:00,36.0,36.0,-100.00,South,180,12.0,16.0,97,1.35,,,-99.99,,2013-01-27 10:01:00,
2013-01-27 04:11:00,36.0,36.0,-100.00,South,185,12.0,17.0,97,1.15,,,-99.99,,2013-01-27 10:11:00,
2013-01-27 04:21:00,36.0,36.0,-100.00,South,180,12.0,17.0,97,1.30,,,-99.99,,2013-01-27 10:21:00,
2013-01-27 04:31:00,37.0,36.0,-100.00,South,175,14.0,18.0,97,0.00,,,-99.99,,2013-01-27 10:31:00,
2013-01-27 04:41:00,37.0,36.0,-100.00,South,175,14.0,18.0,97,0.00,,,-99.99,,2013-01-27 10:41:00,
2013-01-27 04:51:00,37.0,37.0,-100.00,South,170,15.0,18.0,97,0.00,,,-99.99,,2013-01-27 10:51:00,
2013-01-27 05:01:00,37.0,37.0,-100.00,South,170,15.0,18.0,97,0.00,,,-99.99,,2013-01-27 11:01:00,
2013-01-27 05:11:00,37.0,37.0,-100.00,South,175,13.0,18.0,97,0.00,,,-99.99,,2013-01-27 11:11:00,
2013-01-27 05:21:00,37.0,37.0,-100.00,South,170,12.0,16.0,97,0.00,,,-99.99,,2013-01-27 11:21:00,
2013-01-27 05:32:00,37.0,36.0,-100.00,SSE,160,10.0,16.0,96,0.00,,,-99.99,,2013-01-27 11:32:00,
2013-01-27 05:42:00,37.0,36.0,-100.00,SSE,160,10.0,16.0,96,0.00,,,-99.99,,2013-01-27 11:42:00,
2013-01-27 05:52:00,37.0,36.0,-100.00,SSE,155,11.0,16.0,96,0.00,,,-99.99,,2013-01-27 11:52:00,
2013-01-27 06:02:00,37.0,36.0,-100.00,SSE,155,11.0,16.0,96,0.00,,,-99.99,,2013-01-27 12:02:00,
2013-01-27 06:11:00,37.0,36.0,-100.00,SE,140,13.0,16.0,96,0.00,,,-99.99,,2013-01-27 12:11:00,
2013-01-27 06:21:00,37.0,36.0,-100.00,SSE,155,11.0,18.0,96,0.64,,,-99.99,,2013-01-27 12:21:00,
2013-01-27 06:32:00,36.0,36.0,-100.00,SSE,155,9.0,13.0,96,0.00,,,-99.99,,2013-01-27 12:32:00,
2013-01-27 06:42:00,36.0,36.0,-100.00,SSE,155,9.0,13.0,96,0.00,,,-99.99,,2013-01-27 12:42:00,
2013-01-27 06:52:00,36.0,36.0,-100.00,SSE,165,10.0,15.0,96,0.00,,,-99.99,,2013-01-27 12:52:00,
2013-01-27 07:02:00,36.0,36.0,-100.00,SSE,165,10.0,15.0,96,0.00,,,-99.99,,2013-01-27 13:02:00,
2013-01-27 07:11:00,36.0,36.0,-100.00,South,170,11.0,15.0,96,0.57,,,-99.99,,2013-01-27 13:11:00,
2013-01-27 07:22:00,36.0,36.0,-100.00,SSE,150,10.0,14.0,96,0.65,,,-99.99,,2013-01-27 13:22:00,
2013-01-27 07:32:00,37.0,36.0,-100.00,SSE,165,10.0,16.0,96,1.01,,,-99.99,,2013-01-27 13:32:00,
2013-01-27 07:42:00,37.0,36.0,-100.00,SSE,165,10.0,16.0,96,1.01,,,-99.99,,2013-01-27 13:42:00,
2013-01-27 07:52:00,37.0,36.0,-100.00,South,170,11.0,13.0,97,0.65,,,-99.99,,2013-01-27 13:52:00,
2013-01-27 08:02:00,37.0,36.0,-100.00,South,170,11.0,13.0,97,0.65,,,-99.99,,2013-01-27 14:02:00,
2013-01-27 08:11:00,37.0,36.0,-100.00,SSE,155,9.0,14.0,97,1.01,,,-99.99,,2013-01-27 14:11:00,
2013-01-27 08:22:00,37.0,36.0,-100.00,South,170,9.0,12.0,97,0.84,,,-99.99,,2013-01-27 14:22:00,
2013-01-27 08:32:00,37.0,36.0,-100.00,SSE,150,11.0,15.0,97,0.81,,,-99.99,,2013-01-27 14:32:00,
2013-01-27 08:42:00,37.0,36.0,-100.00,SSE,150,11.0,15.0,97,0.81,,,-99.99,,2013-01-27 14:42:00,
2013-01-27 08:52:00,37.0,37.0,-100.00,South,170,9.0,14.0,97,0.52,,,-99.99,,2013-01-27 14:52:00,
2013-01-27 09:02:00,37.0,37.0,-100.00,South,170,9.0,14.0,97,0.52,,,-99.99,,2013-01-27 15:02:00,
2013-01-27 09:11:00,37.0,37.0,-100.00,South,170,10.0,14.0,97,0.92,,,-99.99,,2013-01-27 15:11:00,
2013-01-27 09:22:00,38.0,37.0,-100.00,South,170,9.0,14.0,97,0.54,,,-99.99,,2013-01-27 15:22:00,
2013-01-27 09:32:00,38.0,37.0,-100.00,South,170,9.0,15.0,97,0.59,,,-99.99,,2013-01-27 15:32:00,
2013-01-27 09:42:00,38.0,37.0,-100.00,South,170,9.0,15.0,97,0.59,,,-99.99,,2013-01-27 15:42:00,
2013-01-27 09:52:00,39.0,38.0,-100.00,South,185,14.0,20.0,97,0.00,,,-99.99,,2013-01-27 15:52:00,
2013-01-27 10:02:00,39.0,38.0,-100.00,South,185,14.0,20.0,97,0.00,,,-99.99,,2013-01-27 16:02:00,
2013-01-27 10:11:00,39.0,38.0,-100.00,South,180,12.0,19.0,97,0.00,,,-99.99,,2013-01-27 16:11:00,
2013-01-27 10:21:00,39.0,38.0,-100.00,South,170,12.0,17.0,97,0.00,,,-99.99,,2013-01-27 16:21:00,
2013-01-27 10:32:00,40.0,39.0,-100.00,South,170,10.0,19.0,98,0.00,,,-99.99,,2013-01-27 16:32:00,
2013-01-27 10:42:00,40.0,39.0,-100.00,South,170,10.0,19.0,98,0.00,,,-99.99,,2013-01-27 16:42:00,
2013-01-27 10:52:00,40.0,39.0,-100.00,South,185,13.0,19.0,98,0.00,,,-99.99,,2013-01-27 16:52:00,
2013-01-27 11:02:00,40.0,39.0,-100.00,South,185,13.0,19.0,98,0.00,,,-99.99,,2013-01-27 17:02:00,
2013-01-27 11:12:00,40.0,39.0,-100.00,South,185,11.0,18.0,98,0.00,,,-99.99,,2013-01-27 17:12:00,
2013-01-27 11:21:00,40.0,40.0,-100.00,South,175,12.0,18.0,98,0.00,,,-99.99,,2013-01-27 17:21:00,
2013-01-27 11:32:00,40.0,40.0,-100.00,South,180,12.0,19.0,98,0.00,,,-99.99,,2013-01-27 17:32:00,
2013-01-27 11:42:00,40.0,40.0,-100.00,South,180,12.0,17.0,98,0.00,,,-99.99,,2013-01-27 17:42:00,
2013-01-27 11:52:00,41.0,40.0,-100.00,South,185,12.0,17.0,98,0.00,,,-99.99,,2013-01-27 17:52:00,
2013-01-27 12:02:00,41.0,40.0,-100.00,South,185,12.0,17.0,98,0.00,,,-99.99,,2013-01-27 18:02:00,
2013-01-27 12:11:00,41.0,40.0,-100.00,South,185,14.0,21.0,98,0.00,,,-99.99,,2013-01-27 18:11:00,
2013-01-27 12:22:00,41.0,40.0,-100.00,South,180,17.0,21.0,98,0.00,,,-99.99,,2013-01-27 18:22:00,
2013-01-27 12:32:00,41.0,41.0,-100.00,South,180,14.0,18.0,98,0.00,,,-99.99,,2013-01-27 18:32:00,
2013-01-27 12:42:00,41.0,41.0,-100.00,South,180,14.0,18.0,98,0.00,,,-99.99,,2013-01-27 18:42:00,
2013-01-27 12:52:00,42.0,41.0,-100.00,South,185,15.0,20.0,98,0.00,,,-99.99,,2013-01-27 18:52:00,
2013-01-27 13:02:00,42.0,41.0,-100.00,South,185,15.0,20.0,98,0.00,,,-99.99,,2013-01-27 19:02:00,
2013-01-27 13:11:00,42.0,41.0,-100.00,South,180,14.0,20.0,98,0.00,,,-99.99,,2013-01-27 19:11:00,
2013-01-27 13:22:00,42.0,41.0,-100.00,South,180,14.0,18.0,98,0.00,,,-99.99,,2013-01-27 19:22:00,
2013-01-27 13:32:00,42.0,42.0,-100.00,South,180,12.0,18.0,98,0.00,,,-99.99,,2013-01-27 19:32:00,
2013-01-27 13:41:00,42.0,42.0,-100.00,South,180,12.0,18.0,98,0.00,,,-99.99,,2013-01-27 19:41:00,
2013-01-27 13:51:00,42.0,42.0,-100.00,South,175,12.0,16.0,98,0.00,,,-99.99,,2013-01-27 19:51:00,
2013-01-27 14:02:00,42.0,42.0,-100.00,South,175,12.0,16.0,98,0.00,,,-99.99,,2013-01-27 20:02:00,
2013-01-27 14:11:00,43.0,42.0,-100.00,South,180,12.0,16.0,98,0.72,,,-99.99,,2013-01-27 20:11:00,
2013-01-27 14:22:00,43.0,43.0,-100.00,South,175,12.0,16.0,98,0.75,,,-99.99,,2013-01-27 20:22:00,
2013-01-27 14:32:00,43.0,43.0,-100.00,South,170,11.0,16.0,98,0.68,,,-99.99,,2013-01-27 20:32:00,
2013-01-27 14:42:00,43.0,43.0,-100.00,South,170,11.0,16.0,98,0.68,,,-99.99,,2013-01-27 20:42:00,
2013-01-27 14:52:00,43.0,43.0,-100.00,South,175,11.0,14.0,98,0.00,,,-99.99,,2013-01-27 20:52:00,
2013-01-27 15:02:00,43.0,43.0,-100.00,South,175,11.0,14.0,98,0.00,,,-99.99,,2013-01-27 21:02:00,
2013-01-27 15:12:00,44.0,43.0,-100.00,South,170,11.0,14.0,98,0.75,,,-99.99,,2013-01-27 21:12:00,
2013-01-27 15:22:00,44.0,44.0,-100.00,South,175,11.0,14.0,98,0.00,,,-99.99,,2013-01-27 21:22:00,
2013-01-27 15:33:00,44.0,44.0,-100.00,South,180,9.0,12.0,98,0.67,,,-99.99,,2013-01-27 21:33:00,
2013-01-27 15:42:00,44.0,44.0,-100.00,South,180,9.0,12.0,98,0.67,,,-99.99,,2013-01-27 21:42:00,
2013-01-27 15:52:00,44.0,44.0,-100.00,South,180,9.0,12.0,98,0.00,,,-99.99,,2013-01-27 21:52:00,
2013-01-27 16:02:00,44.0,44.0,-100.00,South,180,9.0,12.0,98,0.00,,,-99.99,,2013-01-27 22:02:00,
2013-01-27 16:11:00,44.0,44.0,-100.00,South,185,9.0,12.0,98,0.00,,,-99.99,,2013-01-27 22:11:00,
2013-01-27 16:22:00,44.0,44.0,-100.00,South,180,9.0,11.0,98,0.00,,,-99.99,,2013-01-27 22:22:00,
2013-01-27 16:32:00,45.0,44.0,-100.00,South,180,9.0,12.0,98,0.00,,,-99.99,,2013-01-27 22:32:00,
2013-01-27 16:42:00,45.0,44.0,-100.00,South,180,9.0,12.0,98,0.00,,,-99.99,,2013-01-27 22:42:00,
2013-01-27 16:51:00,44.0,44.0,-100.00,South,185,8.0,12.0,98,0.00,,,-99.99,,2013-01-27 22:51:00,
2013-01-27 17:02:00,44.0,44.0,-100.00,South,185,8.0,12.0,98,0.00,,,-99.99,,2013-01-27 23:02:00,
2013-01-27 17:12:00,44.0,44.0,-100.00,South,190,9.0,10.0,98,0.00,,,-99.99,,2013-01-27 23:12:00,
2013-01-27 17:21:00,45.0,44.0,-100.00,South,190,7.0,11.0,98,0.00,,,-99.99,,2013-01-27 23:21:00,
2013-01-27 17:32:00,45.0,45.0,-100.00,South,185,7.0,10.0,98,0.00,,,-99.99,,2013-01-27 23:32:00,
2013-01-27 17:41:00,45.0,45.0,-100.00,South,185,7.0,10.0,98,0.00,,,-99.99,,2013-01-27 23:41:00,
2013-01-27 17:52:00,45.0,45.0,-100.00,South,180,8.0,10.0,98,0.00,,,-99.99,,2013-01-27 23:52:00,
2013-01-27 18:02:00,45.0,45.0,-100.00,South,180,8.0,10.0,98,0.00,,,-99.99,,2013-01-28 00:02:00,
2013-01-27 18:11:00,45.0,45.0,-100.00,South,190,6.0,11.0,98,0.00,,,-99.99,,2013-01-28 00:11:00,
2013-01-27 18:21:00,45.0,45.0,-100.00,SSW,195,6.0,8.0,98,0.62,,,-99.99,,2013-01-28 00:21:00,
2013-01-27 18:32:00,45.0,45.0,-100.00,SW,215,4.0,7.0,98,0.00,,,-99.99,,2013-01-28 00:32:00,
2013-01-27 18:42:00,45.0,45.0,-100.00,SW,215,4.0,7.0,98,0.00,,,-99.99,,2013-01-28 00:42:00,
2013-01-27 18:51:00,45.0,44.0,-100.00,WSW,245,2.0,5.0,98,0.00,,,-99.99,,2013-01-28 00:51:00,
2013-01-27 19:01:00,45.0,44.0,-100.00,WSW,245,2.0,5.0,98,0.00,,,-99.99,,2013-01-28 01:01:00,
2013-01-27 19:11:00,44.0,44.0,-100.00,NW,325,6.0,10.0,98,0.00,,,-99.99,,2013-01-28 01:11:00,
2013-01-27 19:22:00,42.0,42.0,-100.00,NNW,330,9.0,11.0,98,0.00,,,-99.99,,2013-01-28 01:22:00,
2013-01-27 19:32:00,42.0,42.0,-100.00,NNW,335,4.0,6.0,98,0.00,,,-99.99,,2013-01-28 01:32:00,
2013-01-27 19:42:00,42.0,42.0,-100.00,NNW,335,4.0,6.0,98,0.00,,,-99.99,,2013-01-28 01:42:00,
2013-01-27 19:51:00,42.0,42.0,-100.00,NW,305,4.0,6.0,98,0.00,,,-99.99,,2013-01-28 01:51:00,
2013-01-27 20:02:00,42.0,42.0,-100.00,NW,305,4.0,6.0,98,0.00,,,-99.99,,2013-01-28 02:02:00,
2013-01-27 20:11:00,43.0,42.0,-100.00,NW,325,3.0,4.0,98,0.00,,,-99.99,,2013-01-28 02:11:00,
2013-01-27 20:22:00,43.0,42.0,-100.00,NW,325,2.0,4.0,98,0.00,,,-99.99,,2013-01-28 02:22:00,
2013-01-27 20:32:00,42.0,42.0,-100.00,NW,325,4.0,5.0,98,0.00,,,-99.99,,2013-01-28 02:32:00,
2013-01-27 20:42:00,42.0,42.0,-100.00,NW,325,4.0,5.0,98,0.00,,,-99.99,,2013-01-28 02:42:00,
2013-01-27 20:52:00,43.0,42.0,-100.00,NW,310,4.0,7.0,98,0.00,,,-99.99,,2013-01-28 02:52:00,
2013-01-27 21:02:00,43.0,42.0,-100.00,NW,310,4.0,7.0,98,0.00,,,-99.99,,2013-01-28 03:02:00,
2013-01-27 21:11:00,44.0,43.0,-100.00,NW,315,9.0,12.0,98,0.00,,,-99.99,,2013-01-28 03:11:00,
2013-01-27 21:21:00,43.0,43.0,-100.00,NW,320,9.0,12.0,98,0.00,,,-99.99,,2013-01-28 03:21:00,
2013-01-27 21:32:00,43.0,42.0,-100.00,NW,315,9.0,15.0,98,0.00,,,-99.99,,2013-01-28 03:32:00,
2013-01-27 21:41:00,43.0,42.0,-100.00,NW,315,9.0,15.0,98,0.00,,,-99.99,,2013-01-28 03:41:00,
2013-01-27 21:52:00,42.0,42.0,-100.00,NW,320,9.0,13.0,98,0.00,,,-99.99,,2013-01-28 03:52:00,
2013-01-27 22:02:00,42.0,42.0,-100.00,NW,320,9.0,13.0,98,0.00,,,-99.99,,2013-01-28 04:02:00,
2013-01-27 22:11:00,42.0,41.0,-100.00,NW,315,9.0,12.0,98,0.00,,,-99.99,,2013-01-28 04:11:00,
2013-01-27 22:21:00,41.0,41.0,-100.00,NW,315,11.0,13.0,98,0.00,,,-99.99,,2013-01-28 04:21:00,
2013-01-27 22:32:00,40.0,40.0,-100.00,NW,315,7.0,10.0,98,0.00,,,-99.99,,2013-01-28 04:32:00,
2013-01-27 22:41:00,40.0,40.0,-100.00,NW,315,7.0,10.0,98,0.00,,,-99.99,,2013-01-28 04:41:00,
2013-01-27 22:52:00,40.0,40.0,-100.00,WNW,300,6.0,7.0,98,0.00,,,-99.99,,2013-01-28 04:52:00,
2013-01-27 23:03:00,40.0,40.0,-100.00,WNW,300,6.0,7.0,98,0.00,,,-99.99,,2013-01-28 05:03:00,
2013-01-27 23:11:00,40.0,39.0,-100.00,NW,315,6.0,7.0,98,0.00,,,-99.99,,2013-01-28 05:11:00,
2013-01-27 23:21:00,39.0,38.0,-100.00,NW,320,7.0,9.0,98,0.00,,,-99.99,,2013-01-28 05:21:00,
2013-01-27 23:32:00,39.0,39.0,-100.00,NNW,330,11.0,14.0,98,0.00,,,-99.99,,2013-01-28 05:32:00,
2013-01-27 23:41:00,39.0,39.0,-100.00,NNW,330,11.0,14.0,98,0.00,,,-99.99,,2013-01-28 05:41:00,
2013-01-27 23:52:00,39.0,39.0,-100.00,NNW,330,11.0,14.0,98,0.00,,,-99.99,,2013-01-28 05:52:00,